Location: Godzisko
(49.9648°N, 19.4576°E)
Time: 07:36:37
(UTC+00:00)

Cosmos 1805 - Pass Details

Date: 20 April 2021
Orbit: 524 x 529 km, 82.5° (Epoch: 06 May)

Event Time Altitude Azimuth Distance (km) Brightness Sun altitude
Rises 02:46:26 0° 339° (NNW) 2,684 6.9 -8.6°
Reaches altitude 10° 02:48:52 10° 325° (NW) 1,788 5.9 -8.2°
Maximum altitude 02:52:03 24° 271° (W) 1,133 4.4 -7.8°
Drops below altitude 10° 02:55:12 10° 217° (SW) 1,773 5.4 -7.3°
Enters shadow 02:56:28 - 208° (SSW) 2,221 5.9 -7.1°
